[[{"header":{"parameterUnit":"m.s-1","parameterCategory":1,"la1":30.2991,"la2":30.254,"lo1":-89.0895,"lo2":-89.0444,"dy":0.0017,"dx":0.0017,"nx":28,"ny":28,"refTime":"2024-07-01T09:00:00:Z","depth":0,"parameterNumber":2,"parameterNumberName":"U-component_of_WINDS"},"data":[0,0,0,0,0,0,0,0,0,0,0,0,0,0,0,0,0,0,0,0,0,0,0,0,0,0,0,0,0,0,0,0,0,0,0,0,0,0,0,0,0,0,0,0,0,0,0,0,0,0,0,0,0,0,0,0,0,0,1.6478,1.6478,0,1.6521,1.6522,1.6522,1.6493,1.6492,1.649,1.6489,1.6533,1.6535,1.6538,0,0,0,0,0,0,0,0,0,0,0,0,0,1.6371,1.6374,1.6478,1.6478,1.6479,1.6521,1.6522,1.6522,1.6493,1.6492,1.649,1.6488,1.6532,1.6535,1.6538,0,0,0,0,0,0,0,0,0,0,0,0,0,1.6417,1.6374,1.6478,1.6469,1.6469,1.6521,1.6522,1.6522,1.6494,1.6492,1.649,1.6488,1.6531,1.6535,1.6538,1.6601,0,0,1.655,1.6551,0,0,0,0,0,0,0,0,1.6414,1.642,1.647,1.647,1.647,1.65,1.65,1.6549,1.6494,1.6484,1.6489,1.6487,1.6524,1.6528,1.654,1.6603,1.6605,1.655,1.6552,1.6554,1.6555,0,0,0,0,0,0,0,1.6411,1.6418,1.6495,1.6471,1.6471,1.6464,1.6468,1.6509,1.6515,1.6485,1.6483,1.6488,1.6523,1.6537,1.6541,1.6605,1.655,1.6553,1.6555,1.6557,1.6724,1.6726,0,0,0,0,0,0,1.6408,1.6416,1.6494,1.6496,1.6436,1.6468,1.6472,1.6492,1.6514,1.6515,1.649,1.6487,1.6532,1.6537,1.6542,1.6618,1.6554,1.6557,1.6559,1.6722,1.6724,1.6727,0,0,0,0,0,0,1.6406,1.6416,1.6492,1.6456,1.6465,1.6472,1.6494,1.6494,1.6508,1.6518,1.6519,1.6503,1.653,1.6537,1.6587,1.6619,1.6559,1.6562,1.6719,1.6722,1.6726,1.6769,0,0,0,0,0,0,1.6403,1.6415,1.6438,1.6456,1.6467,1.6535,1.6496,1.6496,1.6514,1.651,1.653,1.6532,1.6529,1.6582,1.6591,1.6623,1.6565,1.6716,1.672,1.6724,1.6765,1.6773,1.6781,0,0,0,0,0,1.64,1.6448,1.6439,1.6449,1.6496,1.6537,1.6543,1.6539,1.6517,1.654,1.6548,1.6531,1.6615,1.6587,1.6597,1.6631,1.6714,1.6719,1.6724,1.6761,1.6772,1.6781,0,0,0,0,0,0,1.6432,1.645,1.6441,1.6496,1.6516,1.6532,1.6561,1.655,1.6576,1.6571,1.6566,1.6571,1.6623,1.6632,1.6601,1.6694,1.6661,1.6668,1.6685,1.6696,1.6704,1.67,1.6568,0,0,0,0,0,1.6446,1.6478,1.6492,1.654,1.655,1.6554,1.6572,1.6568,1.6587,1.6595,1.6606,1.6626,1.6656,1.6677,1.6705,1.6766,1.6771,1.6795,1.6803,1.681,1.6816,1.685,1.6862,1.6744,1.6743,1.6743,0,0,1.6475,1.6488,1.6508,1.6547,1.6561,1.6595,1.6561,1.6597,1.6623,1.6601,1.6648,1.6657,1.6679,1.6735,1.6761,1.6744,1.685,1.6816,1.6821,1.6824,1.6857,1.6868,1.6878,1.6747,1.6746,1.6746,0,0,1.6544,1.6557,1.6599,1.6615,1.6637,1.6641,1.6651,1.667,1.6675,1.6723,1.6708,1.6739,1.6791,1.6808,1.6823,1.6903,1.6889,1.6912,1.6954,1.6988,1.6998,1.7006,1.7035,1.7045,1.6919,1.6919,1.6919,0,1.6576,1.6626,1.6622,1.6661,1.6678,1.6661,1.6705,1.672,1.6751,1.6764,1.6746,1.6813,1.6827,1.6887,1.6907,1.692,1.6932,1.6909,1.6997,1.7005,1.7013,1.704,1.7051,1.6922,1.6921,1.6921,1.6921,0,1.6665,1.67,1.6732,1.6763,1.6785,1.6825,1.6829,1.6851,1.6846,1.6852,1.6902,1.6918,1.6951,1.6965,1.696,1.7026,1.7015,1.6997,1.6964,1.7027,1.7053,1.7063,1.6925,1.6924,1.6924,1.6923,0,0,1.6754,1.6785,1.6796,1.6811,1.6836,1.6864,1.6905,1.6937,1.6957,1.698,1.7015,1.7061,1.7046,1.7063,1.706,1.709,1.7154,1.7068,1.7069,1.7084,1.7229,1.7242,1.7255,1.7145,1.7147,1.7149,1.7227,0,1.6825,1.6895,1.6895,1.6961,1.6994,1.698,1.7016,1.7036,1.7043,1.7073,1.7081,1.7114,1.709,1.7101,1.713,1.714,1.7183,1.7134,1.7178,1.718,1.7172,1.7268,1.7282,1.7355,1.7237,1.7239,1.724,0,1.6916,1.6943,1.7013,1.7035,1.7049,1.7081,1.7113,1.7141,1.7164,1.7168,1.7189,1.7182,1.7225,1.7192,1.7252,1.7219,1.7237,1.7245,1.7248,1.7251,1.7213,1.7274,1.7378,1.7389,1.7256,1.7255,1.7254,0,1.6974,1.7028,1.7077,1.709,1.7118,1.7141,1.7154,1.7175,1.7196,1.7223,1.7237,1.7269,1.7287,1.7312,1.7315,1.729,1.7376,1.7342,1.738,1.738,1.7397,1.7396,1.7506,1.741,1.741,1.741,1.7409,0,1.7053,1.7096,1.7104,1.7134,1.7183,1.7183,1.7231,1.7242,1.7262,1.7295,1.7285,1.7316,1.7317,1.735,1.7352,1.7402,1.741,1.7414,1.7414,1.7415,1.7415,1.7426,1.7421,1.7413,1.7412,1.7411,1.7411,0,1.7125,1.7132,1.7185,1.7208,1.7215,1.725,1.7269,1.7299,1.7306,1.7348,1.7358,1.7369,1.7407,1.7413,1.7457,1.7459,1.7519,1.7514,1.7511,1.751,1.7548,1.7544,1.7668,1.7685,1.7579,1.758,1.758,0,1.7175,1.7208,1.7235,1.7257,1.7271,1.7305,1.7327,1.7329,1.7352,1.7383,1.7409,1.7446,1.7475,1.7537,1.7549,1.7584,1.7579,1.7621,1.7584,1.7585,1.758,1.7578,1.7582,1.7627,1.7628,1.7629,1.763,0,1.7263,1.7265,1.7296,1.733,1.7356,1.7382,1.7407,1.7425,1.7431,1.7457,1.7496,1.752,1.7566,1.7603,1.7638,1.7651,1.7642,1.7642,1.7652,1.7653,1.765,1.7653,1.753,1.7638,1.7638,1.7637,1.7636,1.7636,1.7325,1.7355,1.7379,1.7415,1.7434,1.7458,1.7488,1.75,1.7532,1.757,1.757,1.7613,1.7638,1.7684,1.77,1.7735,1.7721,1.7737,1.774,1.7744,1.7748,1.7646,1.7741,1.7741,1.7741,1.774,1.774,0,1.7412,1.7428,1.7461,1.7497,1.7526,1.7516,1.7544,1.7568,1.7607,1.7631,1.7661,1.7707,1.7744,1.7761,1.7797,1.7822,1.7819,1.7831,1.7829,1.7833,1.7757,1.7745,1.7833,1.7833,1.7833,1.7833,1.7833,1.7833,1.7461,1.7511,1.7517,1.7578,1.7593,1.7635,1.7652,1.7675,1.7695,1.7747,1.7778,1.7789,1.7811,1.7849,1.7883,1.7887,1.7901,1.7916,1.7918,1.7847,1.7838,1.7829,1.7817,1.7919,1.7919,1.7991,1.7992,1.7992]},{"header":{"parameterUnit":"m.s-1","parameterCategory":1,"la1":30.2991,"la2":30.254,"lo1":-89.0895,"lo2":-89.0444,"dy":0.0017,"dx":0.0017,"nx":28,"ny":28,"refTime":"2024-07-01T09:00:00:Z","depth":0,"parameterNumber":3,"parameterNumberName":"V-component_of_WINDS"},"data":[0,0,0,0,0,0,0,0,0,0,0,0,0,0,0,0,0,0,0,0,0,0,0,0,0,0,0,0,0,0,0,0,0,0,0,0,0,0,0,0,0,0,0,0,0,0,0,0,0,0,0,0,0,0,0,0,0,0,-2.8413,-2.8414,0,-2.8534,-2.8536,-2.8537,-2.8534,-2.8533,-2.8531,-2.853,-2.8653,-2.8658,-2.8662,0,0,0,0,0,0,0,0,0,0,0,0,0,-2.818,-2.8184,-2.8413,-2.8415,-2.8416,-2.8534,-2.8536,-2.8537,-2.8535,-2.8533,-2.8531,-2.8529,-2.8651,-2.8657,-2.8663,0,0,0,0,0,0,0,0,0,0,0,0,0,-2.8289,-2.8186,-2.8413,-2.8429,-2.8432,-2.8534,-2.8536,-2.8538,-2.8535,-2.8533,-2.853,-2.8528,-2.8649,-2.8656,-2.8664,-2.8757,0,0,-2.8686,-2.8689,0,0,0,0,0,0,0,0,-2.8283,-2.8298,-2.8425,-2.8428,-2.8431,-2.8517,-2.8499,-2.8611,-2.8536,-2.8496,-2.8529,-2.8527,-2.861,-2.862,-2.8648,-2.8763,-2.8768,-2.8686,-2.8691,-2.8694,-2.8696,0,0,0,0,0,0,0,-2.8275,-2.8293,-2.8461,-2.8427,-2.8431,-2.843,-2.8443,-2.852,-2.8565,-2.8499,-2.8499,-2.8514,-2.8611,-2.8641,-2.8651,-2.877,-2.8686,-2.8692,-2.8697,-2.87,-2.8969,-2.8972,0,0,0,0,0,0,-2.8264,-2.8286,-2.8457,-2.8465,-2.835,-2.8437,-2.8451,-2.8492,-2.8564,-2.8573,-2.8516,-2.8513,-2.863,-2.8642,-2.8655,-2.877,-2.8694,-2.87,-2.8705,-2.8967,-2.897,-2.8973,0,0,0,0,0,0,-2.826,-2.828,-2.8452,-2.8376,-2.8397,-2.8443,-2.8489,-2.8495,-2.8526,-2.8577,-2.8584,-2.8538,-2.8628,-2.8645,-2.8732,-2.8775,-2.8704,-2.871,-2.8963,-2.8968,-2.8972,-2.9001,0,0,0,0,0,0,-2.8253,-2.8278,-2.8314,-2.8376,-2.8402,-2.8527,-2.8492,-2.85,-2.8538,-2.8536,-2.86,-2.8608,-2.8628,-2.8721,-2.8739,-2.8783,-2.8716,-2.896,-2.8965,-2.897,-2.8996,-2.9006,-2.9014,0,0,0,0,0,-2.8245,-2.8317,-2.8316,-2.8336,-2.8447,-2.853,-2.8544,-2.8565,-2.8542,-2.8578,-2.8611,-2.8606,-2.8767,-2.873,-2.8751,-2.8797,-2.8957,-2.8964,-2.897,-2.8993,-2.9004,-2.9013,0,0,0,0,0,0,-2.8258,-2.8325,-2.8325,-2.8419,-2.8469,-2.8529,-2.8576,-2.8576,-2.8633,-2.8629,-2.8653,-2.8667,-2.8755,-2.8785,-2.8743,-2.8892,-2.8859,-2.887,-2.8869,-2.8881,-2.8889,-2.888,-2.8722,0,0,0,0,0,-2.8272,-2.8333,-2.8389,-2.8467,-2.8492,-2.853,-2.8566,-2.8578,-2.863,-2.8651,-2.869,-2.8741,-2.8803,-2.8844,-2.8903,-2.9001,-2.9015,-2.9043,-2.9052,-2.9058,-2.9067,-2.9122,-2.9135,-2.8994,-2.8994,-2.8994,0,0,-2.8301,-2.8345,-2.8382,-2.8471,-2.851,-2.8573,-2.8547,-2.8615,-2.8662,-2.8661,-2.8746,-2.8777,-2.8835,-2.8928,-2.8971,-2.8956,-2.911,-2.9067,-2.9072,-2.9077,-2.913,-2.9143,-2.9155,-2.8998,-2.8998,-2.8997,0,0,-2.8387,-2.8426,-2.8496,-2.8537,-2.8598,-2.8623,-2.864,-2.87,-2.8721,-2.8807,-2.8808,-2.8864,-2.8971,-2.9013,-2.9048,-2.9151,-2.9149,-2.917,-2.9215,-2.9268,-2.9279,-2.9289,-2.9327,-2.934,-2.9179,-2.9179,-2.9179,0,-2.8415,-2.851,-2.8532,-2.8601,-2.864,-2.8643,-2.8714,-2.8753,-2.883,-2.8857,-2.8839,-2.8973,-2.9012,-2.9116,-2.9141,-2.9169,-2.919,-2.9162,-2.9276,-2.9286,-2.9296,-2.9332,-2.9346,-2.9181,-2.9181,-2.918,-2.918,0,-2.8543,-2.8609,-2.8659,-2.8734,-2.8778,-2.8848,-2.888,-2.8923,-2.8932,-2.8959,-2.9047,-2.9094,-2.9164,-2.919,-2.9199,-2.9295,-2.9284,-2.927,-2.9238,-2.9311,-2.9345,-2.9359,-2.9184,-2.9183,-2.9182,-2.9182,0,0,-2.864,-2.8727,-2.8745,-2.8779,-2.8847,-2.8899,-2.8969,-2.9038,-2.9074,-2.9128,-2.9187,-2.9278,-2.9267,-2.9307,-2.932,-2.9367,-2.9447,-2.9348,-2.935,-2.9365,-2.9557,-2.9567,-2.9582,-2.9446,-2.9449,-2.9451,-2.9552,0,-2.8733,-2.8858,-2.888,-2.8989,-2.905,-2.9055,-2.9116,-2.9165,-2.9192,-2.9249,-2.9279,-2.9343,-2.9323,-2.9347,-2.9394,-2.9427,-2.9486,-2.942,-2.9502,-2.9505,-2.9488,-2.96,-2.9611,-2.9704,-2.9566,-2.9568,-2.957,0,-2.8858,-2.8916,-2.9031,-2.9092,-2.9118,-2.9173,-2.9239,-2.9293,-2.9348,-2.9365,-2.941,-2.9419,-2.9492,-2.9456,-2.9558,-2.9514,-2.9548,-2.957,-2.9574,-2.9583,-2.9542,-2.9612,-2.9734,-2.9748,-2.9591,-2.9589,-2.9588,0,-2.8918,-2.9024,-2.9107,-2.9136,-2.9209,-2.9247,-2.928,-2.9333,-2.9373,-2.9431,-2.9457,-2.9523,-2.9558,-2.9609,-2.9635,-2.9606,-2.9736,-2.9702,-2.9752,-2.9752,-2.9779,-2.9777,-2.9909,-2.9801,-2.9801,-2.9801,-2.98,0,-2.902,-2.909,-2.9135,-2.9186,-2.9265,-2.929,-2.9368,-2.94,-2.9447,-2.9505,-2.9513,-2.9567,-2.9598,-2.9657,-2.9678,-2.976,-2.9776,-2.9792,-2.9796,-2.9791,-2.9789,-2.9814,-2.9809,-2.9804,-2.9804,-2.9803,-2.9802,0,-2.91,-2.9132,-2.9223,-2.9285,-2.9302,-2.9358,-2.9411,-2.9461,-2.9489,-2.9562,-2.958,-2.9624,-2.9694,-2.9725,-2.9811,-2.9825,-2.9919,-2.9919,-2.99,-2.9902,-2.9951,-2.9946,-3.0103,-3.0126,-3.0003,-3.0004,-3.0005,0,-2.9163,-2.9217,-2.9285,-2.9325,-2.9358,-2.9421,-2.9463,-2.949,-2.9533,-2.9601,-2.9643,-2.9713,-2.9771,-2.9882,-2.9921,-2.9987,-2.9989,-3.004,-2.9999,-2.9992,-2.9991,-2.9987,-2.9993,-3.0047,-3.0048,-3.0049,-3.005,0,-2.9272,-2.9285,-2.9345,-2.9411,-2.9461,-2.9514,-2.9566,-2.9598,-2.9633,-2.9681,-2.9753,-2.9798,-2.9886,-2.9956,-3.0024,-3.0058,-3.0061,-3.0063,-3.0078,-3.0073,-3.0061,-3.0069,-2.9921,-3.0059,-3.0058,-3.0057,-3.0057,-3.0057,-2.9346,-2.9394,-2.945,-2.9517,-2.9559,-2.9608,-2.9659,-2.9693,-2.9753,-2.9827,-2.984,-2.9916,-2.9972,-3.0064,-3.01,-3.0161,-3.0149,-3.0171,-3.0176,-3.0181,-3.0185,-3.0051,-3.0173,-3.0173,-3.0173,-3.0173,-3.0173,0,-2.9455,-2.9491,-2.9553,-2.9626,-2.9678,-2.9677,-2.9735,-2.9779,-2.9846,-2.9898,-2.9954,-3.0037,-3.0105,-3.015,-3.0219,-3.0259,-3.0262,-3.0276,-3.0274,-3.0282,-3.0191,-3.0171,-3.0273,-3.0273,-3.0273,-3.0273,-3.0273,-3.0273,-2.9518,-2.9601,-2.9622,-2.9727,-2.9763,-2.9838,-2.9871,-2.9917,-2.9958,-3.005,-3.0107,-3.0136,-3.0186,-3.0258,-3.0321,-3.0333,-3.0358,-3.0373,-3.0384,-3.0298,-3.0288,-3.0278,-3.026,-3.0378,-3.0378,-3.047,-3.047,-3.0471]}]]